Погода в Мшено

Чехия     50°26′22″N   14°37′57″E
темп.,
°C
ветер,
м/с
пор.,
м/с
влажн.,
%
обл.,
%
осадки,
мм/ч
давл.,
гПа
погр.,
м
17 сентября, пт
пт1723:00+14сз2789100 0.3 1014425
02:00+12зсз22924 0.3 101532
05:00+11зсз229520 0.0 101440
08:00+12зсз2592100 0.0 1014186
11:00+13зсз3785100 0.1 1014824
14:00+14зсз4781100 0.2 1014783
17:00+14сз4878100 0.1 1014851
20:00+13сз3983100 0.2 1015658
18 сентября, сб
сб1823:00+13сз3879100 0.0 1015478
02:00+12зсз2682100 0.0 1014344
05:00+11зсз3785100 0.1 1014296
08:00+11зсз3782100 0.1 1015494
11:00+12зсз4773100 0.0 1015637
14:00+14сз3575100 0.0 1015701
17:00+13сз378495 0.0 1015486
20:00+12сз2689100 0.1 1016358
19 сентября, вс
вс1923:00+12ссз2592100 0.0 1016324
02:00+11с258949 0.1 1016244
05:00+8с24951 0.0 101681
08:00+9с13830 0.0 1016122
11:00+13всв226122 0.0 10161002
14:00+16вюв124930 0.0 10151430
17:00+16ссз225121 0.0 10141268
20:00+10ссв227675 0.0 101668
20 сентября, пн
пн2023:00+11юз136990 0.0 1017167
02:00+10зсз1174100 0.0 101728
05:00+9ссз1177100 0.0 101841
08:00+9с1273100 0.0 101885
11:00+13с2351100 0.0 10181416
14:00+14ссз334669 0.0 10181586
17:00+13с454613 0.0 10181601
20:00+9с246627 0.0 102080
21 сентября, вт
вт2123:00+7с22757 0.0 102117
02:00+9сз2368100 0.0 1022112
05:00+7ссз378718 0.1 1022239
08:00+7ссз258711 0.1 1024198
11:00+9ссз477395 0.0 10251030
14:00+13с355498 0.1 10241628
17:00+12с356657 0.3 1024813
20:00+10ссз2267100 0.4 102642